^^
Station Historical Data
Daily Summary for February 5, 2018 Units:  Metric    English   Both
« Previous Day
Next Day »
Daily Weekly Monthly Yearly Custom
  High: Low: Average:
Temperature: -17.8 °C -24.3 °C -22.7 °C
Dew Point: -17.8 °C -24.9 °C -23.5 °C
Humidity: Humidity% 83% 89%
Wind Speed: 0km/h 0km/h 8.2km/h
Wind Gust: 0km/h - -
Wind- - NW
Pressure: 0 hPa 34520.3 hPa -
Precipitation: 0 mm    
Historical Graphs
 
 
Tabular Data for February 5, 2018
Time Temperature Dew Point Pressure Wind Wind Speed Wind Gust Humidity Rainfall Rate (Hourly) solar Conditions
-17.8 °C -17.8 °C 0 hPa Calm     Humidity% 0 mm SoftwareType W/m2 Conditions
00:01 -23.8 °C -24.4 °C 34784.4 hPa NNW 6 km/h 15.6 km/h 91% 0 mm WeatherDisplay:10.37 W/m2 FEW
00:06 -23.8 °C -24.5 °C 34784.4 hPa NNW 11.6 km/h 15.6 km/h 91% 0 mm WeatherDisplay:10.37 W/m2 FEW
00:11 -23.8 °C -24.5 °C 34784.4 hPa NNW 10.9 km/h 20.9 km/h 91% 0 mm WeatherDisplay:10.37 W/m2 FEW
00:16 -23.8 °C -24.5 °C 34784.4 hPa NNW 9.3 km/h 15 km/h 91% 0 mm WeatherDisplay:10.37 W/m2 FEW
00:21 -23.8 °C -24.5 °C 34784.4 hPa NNW 10.1 km/h 20.9 km/h 91% 0 mm WeatherDisplay:10.37 W/m2 FEW
00:26 -23.8 °C -24.5 °C 34784.4 hPa NNW 7.6 km/h 9 km/h 91% 0 mm WeatherDisplay:10.37 W/m2 FEW
00:31 -23.9 °C -24.6 °C 34797.9 hPa NNW 8.5 km/h 15.6 km/h 91% 0 mm WeatherDisplay:10.37 W/m2 FEW
00:36 -23.9 °C -24.6 °C 34784.4 hPa NNW 7.7 km/h 15 km/h 91% 0 mm WeatherDisplay:10.37 W/m2 FEW
00:41 -23.9 °C -24.6 °C 34784.4 hPa NNW 7.2 km/h 9 km/h 91% 0 mm WeatherDisplay:10.37 W/m2 FEW
00:46 -23.9 °C -24.6 °C 34784.4 hPa NNW 6.8 km/h 9 km/h 91% 0 mm WeatherDisplay:10.37 W/m2 FEW
00:51 -24 °C -24.7 °C 34784.4 hPa NNW 6 km/h 11.9 km/h 91% 0 mm WeatherDisplay:10.37 W/m2 FEW
00:56 -24.1 °C -24.7 °C 34784.4 hPa NNW 7.6 km/h 11.9 km/h 91% 0 mm WeatherDisplay:10.37 W/m2 FEW
01:01 -24.1 °C -24.7 °C 34784.4 hPa NNW 6.8 km/h 15 km/h 91% 0 mm WeatherDisplay:10.37 W/m2 FEW
01:06 -24.1 °C -24.7 °C 34797.9 hPa NNW 7.2 km/h 11.9 km/h 91% 0 mm WeatherDisplay:10.37 W/m2 FEW
01:16 -24.2 °C -24.8 °C 34784.4 hPa NNW 6.3 km/h 9 km/h 91% 0 mm WeatherDisplay:10.37 W/m2 FEW
01:21 -24.2 °C -24.8 °C 34797.9 hPa NNW 5.5 km/h 9 km/h 91% 0 mm WeatherDisplay:10.37 W/m2 FEW
01:26 -24.2 °C -24.9 °C 34797.9 hPa NNW 3.1 km/h 10.3 km/h 91% 0 mm WeatherDisplay:10.37 W/m2 FEW
01:31 -24.3 °C -24.9 °C 34784.4 hPa NNW 2.6 km/h 11.9 km/h 91% 0 mm WeatherDisplay:10.37 W/m2 FEW
01:36 -24.3 °C -24.9 °C 34797.9 hPa Calm     91% 0 mm WeatherDisplay:10.37 W/m2 FEW
01:41 -24.3 °C -24.9 °C 34797.9 hPa NNW 2.9 km/h 5.1 km/h 91% 0 mm WeatherDisplay:10.37 W/m2 FEW
01:46 -24.3 °C -24.9 °C 34784.4 hPa NNW 8.9 km/h 17.9 km/h 91% 0 mm WeatherDisplay:10.37 W/m2 FEW
01:51 -24.2 °C -24.8 °C 34797.9 hPa NNW 7.7 km/h 15 km/h 92% 0 mm WeatherDisplay:10.37 W/m2 FEW
01:56 -24.2 °C -24.8 °C 34797.9 hPa NNW 5.5 km/h 9 km/h 92% 0 mm WeatherDisplay:10.37 W/m2 FEW
02:01 -24.2 °C -24.8 °C 34797.9 hPa NW 8 km/h 10.3 km/h 91% 0 mm WeatherDisplay:10.37 W/m2 FEW
02:06 -24.2 °C -24.8 °C 34797.9 hPa North 9.3 km/h 11.9 km/h 91% 0 mm WeatherDisplay:10.37 W/m2 FEW
02:11 -24.2 °C -24.8 °C 34797.9 hPa NNW 7.7 km/h 12.9 km/h 91% 0 mm WeatherDisplay:10.37 W/m2 FEW
02:16 -24.1 °C -24.7 °C 34797.9 hPa NNW 9.8 km/h 12.9 km/h 92% 0 mm WeatherDisplay:10.37 W/m2 FEW
02:21 -24.1 °C -24.7 °C 34797.9 hPa NNW 6.9 km/h 15 km/h 92% 0 mm WeatherDisplay:10.37 W/m2 FEW
02:26 -24.1 °C -24.7 °C 34797.9 hPa NNW 10.1 km/h 23.8 km/h 92% 0 mm WeatherDisplay:10.37 W/m2 FEW
02:31 -24.1 °C -24.6 °C 34797.9 hPa North 10.3 km/h 23.8 km/h 92% 0 mm WeatherDisplay:10.37 W/m2 FEW
02:36 -24 °C -24.6 °C 34797.9 hPa NNW 9 km/h 20.9 km/h 92% 0 mm WeatherDisplay:10.37 W/m2 FEW
02:41 -23.9 °C -24.5 °C 34797.9 hPa NNW 10.6 km/h 20.9 km/h 92% 0 mm WeatherDisplay:10.37 W/m2 FEW
02:46 -23.9 °C -24.5 °C 34797.9 hPa North 9.8 km/h 15.6 km/h 92% 0 mm WeatherDisplay:10.37 W/m2 FEW
02:51 -23.8 °C -24.4 °C 34797.9 hPa NW 9.8 km/h 11.9 km/h 92% 0 mm WeatherDisplay:10.37 W/m2 FEW
02:56 -23.7 °C -24.3 °C 34797.9 hPa NNW 10.3 km/h 23.8 km/h 92% 0 mm WeatherDisplay:10.37 W/m2 FEW
03:01 -23.7 °C -24.2 °C 34797.9 hPa NW 8.2 km/h 15 km/h 92% 0 mm WeatherDisplay:10.37 W/m2 FEW
03:06 -23.6 °C -24.2 °C 34797.9 hPa NNW 8 km/h 12.9 km/h 92% 0 mm WeatherDisplay:10.37 W/m2 FEW
03:11 -23.5 °C -24.1 °C 34797.9 hPa NNW 9.8 km/h 15.6 km/h 92% 0 mm WeatherDisplay:10.37 W/m2 FEW
03:16 -23.5 °C -24.1 °C 34797.9 hPa NNW 10.1 km/h 11.9 km/h 92% 0 mm WeatherDisplay:10.37 W/m2 FEW
03:21 -23.4 °C -24.1 °C 34797.9 hPa NNW 4.2 km/h 9 km/h 92% 0 mm WeatherDisplay:10.37 W/m2 FEW
03:26 -23.4 °C -24 °C 34797.9 hPa NW 3.9 km/h 9 km/h 92% 0 mm WeatherDisplay:10.37 W/m2 FEW
03:31 -23.4 °C -24 °C 34797.9 hPa NNW 6.3 km/h 15 km/h 92% 0 mm WeatherDisplay:10.37 W/m2 FEW
03:36 -23.4 °C -23.9 °C 34797.9 hPa NNW 6.8 km/h 9 km/h 92% 0 mm WeatherDisplay:10.37 W/m2 FEW
03:41 -23.3 °C -23.9 °C 34797.9 hPa NNW 8.5 km/h 15 km/h 92% 0 mm WeatherDisplay:10.37 W/m2 FEW
03:46 -23.2 °C -23.8 °C 34797.9 hPa NNW 6.3 km/h 15 km/h 92% 0 mm WeatherDisplay:10.37 W/m2 FEW
03:51 -23.2 °C -23.8 °C 34797.9 hPa NW 4.2 km/h 9 km/h 92% 0 mm WeatherDisplay:10.37 W/m2 FEW
03:56 -23.2 °C -23.8 °C 34797.9 hPa NNW 8.5 km/h 11.9 km/h 92% 0 mm WeatherDisplay:10.37 W/m2 FEW
04:01 -23.2 °C -23.8 °C 34797.9 hPa NNW 6.3 km/h 9 km/h 92% 0 mm WeatherDisplay:10.37 W/m2 FEW
04:06 -23.2 °C -23.8 °C 34797.9 hPa NNW 7.7 km/h 9 km/h 92% 0 mm WeatherDisplay:10.37 W/m2 FEW
04:11 -23.2 °C -23.8 °C 34797.9 hPa NNW 5.6 km/h 10.3 km/h 92% 0 mm WeatherDisplay:10.37 W/m2 FEW
04:16 -23.2 °C -23.8 °C 34797.9 hPa NNW 8.2 km/h 15 km/h 92% 0 mm WeatherDisplay:10.37 W/m2 FEW
04:21 -23.2 °C -23.8 °C 34797.9 hPa NNW 7.2 km/h 9 km/h 92% 0 mm WeatherDisplay:10.37 W/m2 FEW
04:26 -23.2 °C -23.8 °C 34797.9 hPa NNW 1 km/h 9 km/h 92% 0 mm WeatherDisplay:10.37 W/m2 FEW
04:31 -23.2 °C -23.8 °C 34797.9 hPa NNW 5.1 km/h 11.9 km/h 92% 0 mm WeatherDisplay:10.37 W/m2 FEW
04:36 -23.2 °C -23.8 °C 34797.9 hPa NNW 4.2 km/h 15 km/h 92% 0 mm WeatherDisplay:10.37 W/m2 FEW
04:41 -23.2 °C -23.8 °C 34797.9 hPa NNW 5.5 km/h 9 km/h 92% 0 mm WeatherDisplay:10.37 W/m2 FEW
04:46 -23.2 °C -23.8 °C 34808.1 hPa NNW 7.2 km/h 9 km/h 92% 0 mm WeatherDisplay:10.37 W/m2 FEW
04:51 -23.1 °C -23.7 °C 34797.9 hPa NNW 9 km/h 11.9 km/h 92% 0 mm WeatherDisplay:10.37 W/m2 FEW
04:56 -23 °C -23.6 °C 34797.9 hPa NW 8 km/h 9 km/h 92% 0 mm WeatherDisplay:10.37 W/m2 FEW
05:01 -22.9 °C -23.6 °C 34797.9 hPa NNW 12.2 km/h 20.9 km/h 92% 0 mm WeatherDisplay:10.37 W/m2 FEW
05:06 -22.9 °C -23.5 °C 34797.9 hPa NW 6.8 km/h 11.9 km/h 92% 0 mm WeatherDisplay:10.37 W/m2 FEW
05:11 -22.9 °C -23.5 °C 34797.9 hPa NNW 9.7 km/h 15 km/h 92% 0 mm WeatherDisplay:10.37 W/m2 FEW
05:16 -22.9 °C -23.5 °C 34808.1 hPa NNW 8 km/h 11.9 km/h 92% 0 mm WeatherDisplay:10.37 W/m2 FEW
05:21 -22.9 °C -23.5 °C 34808.1 hPa NW 6.9 km/h 11.9 km/h 92% 0 mm WeatherDisplay:10.37 W/m2 FEW
05:26 -22.9 °C -23.5 °C 34808.1 hPa NNW 2.1 km/h 10.3 km/h 92% 0 mm WeatherDisplay:10.37 W/m2 FEW
05:31 -22.9 °C -23.5 °C 34808.1 hPa NW 6 km/h 9 km/h 92% 0 mm WeatherDisplay:10.37 W/m2 FEW
05:36 -22.9 °C -23.5 °C 34808.1 hPa NW 7.7 km/h 11.9 km/h 92% 0 mm WeatherDisplay:10.37 W/m2 FEW
05:41 -22.9 °C -23.4 °C 34808.1 hPa NW 8.2 km/h 11.9 km/h 92% 0 mm WeatherDisplay:10.37 W/m2 FEW
05:46 -22.9 °C -23.4 °C 34808.1 hPa NNW 6.3 km/h 15 km/h 92% 0 mm WeatherDisplay:10.37 W/m2 FEW
05:51 -22.9 °C -23.4 °C 34797.9 hPa NNW 2.6 km/h 11.9 km/h 92% 0 mm WeatherDisplay:10.37 W/m2 FEW
05:56 -22.9 °C -23.4 °C 34797.9 hPa NNW 8 km/h 11.9 km/h 92% 0 mm WeatherDisplay:10.37 W/m2 FEW
06:01 -22.8 °C -23.4 °C 34797.9 hPa NNW 5.6 km/h 10.3 km/h 92% 0 mm WeatherDisplay:10.37 W/m2 FEW
06:06 -22.8 °C -23.4 °C 34797.9 hPa NNW 8.9 km/h 9 km/h 92% 0 mm WeatherDisplay:10.37 W/m2 FEW
06:11 -22.9 °C -23.4 °C 34797.9 hPa NNW 6.3 km/h 10.3 km/h 92% 0 mm WeatherDisplay:10.37 W/m2 FEW
06:16 -22.9 °C -23.6 °C 34797.9 hPa NW 8 km/h 9 km/h 91% 0 mm WeatherDisplay:10.37 W/m2 FEW
06:21 -22.9 °C -23.5 °C 34797.9 hPa NNW 6.4 km/h 15.6 km/h 92% 0 mm WeatherDisplay:10.37 W/m2 FEW
06:26 -22.9 °C -23.4 °C 34797.9 hPa NNW 8.2 km/h 15 km/h 92% 0 mm WeatherDisplay:10.37 W/m2 FEW
06:31 -22.9 °C -23.4 °C 34797.9 hPa NNW 7.2 km/h 15 km/h 92% 0 mm WeatherDisplay:10.37 W/m2 FEW
06:36 -22.9 °C -23.4 °C 34797.9 hPa NNW 9.7 km/h 15.6 km/h 92% 0 mm WeatherDisplay:10.37 W/m2 FEW
06:41 -22.8 °C -23.4 °C 34797.9 hPa NW 8.5 km/h 12.9 km/h 92% 0 mm WeatherDisplay:10.37 W/m2 FEW
06:46 -22.8 °C -23.5 °C 34797.9 hPa NNW 13.2 km/h 20.9 km/h 91% 0 mm WeatherDisplay:10.37 W/m2 FEW
06:51 -22.8 °C -23.5 °C 34797.9 hPa WNW 9.8 km/h 15 km/h 91% 0 mm WeatherDisplay:10.37 W/m2 FEW
06:56 -22.9 °C -23.6 °C 34797.9 hPa NNW 9 km/h 12.9 km/h 91% 0 mm WeatherDisplay:10.37 W/m2 FEW
07:01 -22.9 °C -23.6 °C 34797.9 hPa NNW 7.2 km/h 11.9 km/h 91% 0 mm WeatherDisplay:10.37 W/m2 FEW
07:06 -22.9 °C -23.6 °C 34797.9 hPa NNW 6.9 km/h 9 km/h 91% 0 mm WeatherDisplay:10.37 W/m2 FEW
07:11 -22.9 °C -23.6 °C 34797.9 hPa NNW 6.9 km/h 15 km/h 91% 0 mm WeatherDisplay:10.37 W/m2 FEW
07:16 -22.9 °C -23.6 °C 34797.9 hPa NNW 6 km/h 9 km/h 91% 0 mm WeatherDisplay:10.37 W/m2 FEW
07:21 -22.9 °C -23.6 °C 34797.9 hPa NW 5.6 km/h 15 km/h 91% 0 mm WeatherDisplay:10.37 W/m2 FEW
07:26 -22.9 °C -23.6 °C 34797.9 hPa NNW 7.2 km/h 9 km/h 91% 0 mm WeatherDisplay:10.37 W/m2 FEW
07:31 -22.9 °C -23.6 °C 34797.9 hPa NNW 3.7 km/h 11.9 km/h 91% 0 mm WeatherDisplay:10.37 W/m2 FEW
07:36 -22.9 °C -23.6 °C 34797.9 hPa NNW 7.7 km/h 15 km/h 91% 0 mm WeatherDisplay:10.37 W/m2 FEW
07:41 -22.9 °C -23.6 °C 34797.9 hPa NNW 7.7 km/h 15 km/h 91% 0 mm WeatherDisplay:10.37 W/m2 FEW
07:46 -22.9 °C -23.6 °C 34797.9 hPa NNW 9.7 km/h 20.9 km/h 91% 0 mm WeatherDisplay:10.37 W/m2 FEW
07:51 -22.9 °C -23.6 °C 34797.9 hPa NNW 6.9 km/h 15 km/h 91% 0 mm WeatherDisplay:10.37 W/m2 FEW
07:56 -22.9 °C -23.6 °C 34797.9 hPa NNW 6.8 km/h 20.9 km/h 91% 0 mm WeatherDisplay:10.37 W/m2 FEW
08:01 -22.9 °C -23.6 °C 34797.9 hPa NNW 7.2 km/h 10.3 km/h 91% 0 mm WeatherDisplay:10.37 W/m2 FEW
08:06 -22.9 °C -23.6 °C 34797.9 hPa WNW 10.1 km/h 11.9 km/h 91% 0 mm WeatherDisplay:10.37 W/m2 FEW
08:11 -22.9 °C -23.6 °C 34797.9 hPa NNW 10.1 km/h 15 km/h 91% 0 mm WeatherDisplay:10.37 W/m2 FEW
08:16 -22.9 °C -23.6 °C 34797.9 hPa NNW 6.3 km/h 15 km/h 90% 0 mm WeatherDisplay:10.37 W/m2 FEW
08:21 -22.9 °C -23.7 °C 34797.9 hPa NNW 1.8 km/h 11.9 km/h 90% 0 mm WeatherDisplay:10.37 W/m2 FEW
08:26 -22.9 °C -23.7 °C 34797.9 hPa NNW 6.4 km/h 20.9 km/h 90% 0 mm WeatherDisplay:10.37 W/m2 FEW
08:31 -22.9 °C -23.7 °C 34797.9 hPa NNW 2.3 km/h 11.9 km/h 90% 0 mm WeatherDisplay:10.37 W/m2 FEW
08:36 -22.9 °C -23.7 °C 34797.9 hPa NNW 8 km/h 11.9 km/h 90% 0 mm WeatherDisplay:10.37 W/m2 FEW
08:41 -22.9 °C -23.7 °C 34797.9 hPa NW 5.5 km/h 15 km/h 90% 0 mm WeatherDisplay:10.37 W/m2 FEW
08:46 -22.9 °C -23.7 °C 34808.1 hPa NNW 2.3 km/h 9 km/h 90% 0 mm WeatherDisplay:10.37 W/m2 FEW
08:51 -23 °C -23.7 °C 34808.1 hPa NNW 1.8 km/h 11.9 km/h 90% 0 mm WeatherDisplay:10.37 W/m2 FEW
08:56 -23 °C -23.7 °C 34808.1 hPa NNW 6.9 km/h 9 km/h 90% 0 mm WeatherDisplay:10.37 W/m2 FEW
09:01 -23 °C -23.7 °C 34797.9 hPa NNW 11.4 km/h 20.9 km/h 90% 0 mm WeatherDisplay:10.37 W/m2 FEW
09:06 -22.9 °C -23.7 °C 34797.9 hPa NNW 9.7 km/h 26.9 km/h 90% 0 mm WeatherDisplay:10.37 W/m2 FEW
09:11 -22.9 °C -23.7 °C 34797.9 hPa NNW 14 km/h 23.8 km/h 90% 0 mm WeatherDisplay:10.37 W/m2 FEW
09:16 -22.9 °C -23.7 °C 34797.9 hPa NNW 15.6 km/h 26.9 km/h 90% 0 mm WeatherDisplay:10.37 W/m2 FEW
09:21 -22.9 °C -23.6 °C 34797.9 hPa NW 8.5 km/h 23.8 km/h 90% 0 mm WeatherDisplay:10.37 W/m2 FEW
09:26 -22.8 °C -23.6 °C 34797.9 hPa North 21.2 km/h 23.8 km/h 90% 0 mm WeatherDisplay:10.37 W/m2 FEW
09:31 -22.8 °C -23.6 °C 34797.9 hPa NNW 15 km/h 20.9 km/h 90% 0 mm WeatherDisplay:10.37 W/m2 FEW
09:36 -22.8 °C -23.6 °C 34797.9 hPa NNW 15.3 km/h 23.8 km/h 90% 0 mm WeatherDisplay:10.37 W/m2 FEW
09:41 -22.8 °C -23.5 °C 34797.9 hPa NNW 11.9 km/h 20.9 km/h 90% 0 mm WeatherDisplay:10.37 W/m2 FEW
09:46 -22.8 °C -23.5 °C 34797.9 hPa NNW 6.9 km/h 9 km/h 90% 0 mm WeatherDisplay:10.37 W/m2 FEW
09:51 -22.7 °C -23.5 °C 34797.9 hPa NNW 9 km/h 29.8 km/h 90% 0 mm WeatherDisplay:10.37 W/m2 FEW
09:56 -22.7 °C -23.4 °C 34797.9 hPa NW 6.4 km/h 11.9 km/h 90% 0 mm WeatherDisplay:10.37 W/m2 FEW
10:01 -22.7 °C -23.5 °C 34797.9 hPa NNW 13.2 km/h 23.8 km/h 89% 0 mm WeatherDisplay:10.37 W/m2 FEW
10:06 -22.7 °C -23.5 °C 34797.9 hPa NNW 7.7 km/h 15 km/h 89% 0 mm WeatherDisplay:10.37 W/m2 FEW
10:11 -22.6 °C -23.4 °C 34797.9 hPa NNW 9.3 km/h 15 km/h 89% 0 mm WeatherDisplay:10.37 W/m2 FEW
10:16 -22.6 °C -23.4 °C 34797.9 hPa NNW 11.4 km/h 23.8 km/h 89% 0 mm WeatherDisplay:10.37 W/m2 FEW
10:22 -22.6 °C -23.4 °C 34797.9 hPa North 13.5 km/h 32.8 km/h 89% 0 mm WeatherDisplay:10.37 W/m2 FEW
10:27 -22.6 °C -23.4 °C 34797.9 hPa NNW 6.9 km/h 11.9 km/h 89% 0 mm WeatherDisplay:10.37 W/m2 FEW
10:32 -22.4 °C -23.3 °C 34797.9 hPa NNW 12.2 km/h 29.8 km/h 89% 0 mm WeatherDisplay:10.37 W/m2 FEW
10:37 -22.4 °C -23.3 °C 34797.9 hPa NNW 10.1 km/h 20.9 km/h 89% 0 mm WeatherDisplay:10.37 W/m2 FEW
10:42 -22.4 °C -23.2 °C 34797.9 hPa NNW 9 km/h 20.8 km/h 89% 0 mm WeatherDisplay:10.37 W/m2 FEW
10:47 -22.4 °C -23.3 °C 34797.9 hPa NNE 6 km/h 17.9 km/h 88% 0 mm WeatherDisplay:10.37 W/m2 FEW
10:52 -22.3 °C -23.2 °C 34797.9 hPa NNW 6.4 km/h 11.9 km/h 88% 0 mm WeatherDisplay:10.37 W/m2 FEW
10:57 -22.3 °C -23.1 °C 34797.9 hPa North 6.9 km/h 15 km/h 89% 0 mm WeatherDisplay:10.37 W/m2 FEW
11:02 -22.2 °C -23.1 °C 34797.9 hPa NNW 8.5 km/h 15.6 km/h 88% 0 mm WeatherDisplay:10.37 W/m2 FEW
11:07 -22.1 °C -23.1 °C 34797.9 hPa NNW 6 km/h 15 km/h 88% 0 mm WeatherDisplay:10.37 W/m2 FEW
11:12 -22.1 °C -23 °C 34784.4 hPa North 2.9 km/h 23.8 km/h 88% 0 mm WeatherDisplay:10.37 W/m2 FEW
11:17 -22.1 °C -23 °C 34784.4 hPa NNW 3.7 km/h 10.3 km/h 87% 0 mm WeatherDisplay:10.37 W/m2 FEW
11:22 -22 °C -22.9 °C 34774.2 hPa NNW 9.3 km/h 29.8 km/h 88% 0 mm WeatherDisplay:10.37 W/m2 FEW
11:28 -22 °C -22.9 °C 34774.2 hPa North 13.2 km/h 26.9 km/h 87% 0 mm WeatherDisplay:10.37 W/m2 FEW
11:33 -21.9 °C -22.9 °C 34774.2 hPa NNW 6.3 km/h 11.9 km/h 87% 0 mm WeatherDisplay:10.37 W/m2 FEW
11:38 -21.9 °C -22.9 °C 34774.2 hPa NNW 11.6 km/h 20.9 km/h 87% 0 mm WeatherDisplay:10.37 W/m2 FEW
11:43 -21.8 °C -22.8 °C 34774.2 hPa ENE 8 km/h 11.9 km/h 87% 0 mm WeatherDisplay:10.37 W/m2 FEW
11:48 -21.8 °C -22.8 °C 34774.2 hPa NNW 6.3 km/h 11.9 km/h 87% 0 mm WeatherDisplay:10.37 W/m2 FEW
11:53 -21.8 °C -22.8 °C 34774.2 hPa NNW 16.1 km/h 23.3 km/h 87% 0 mm WeatherDisplay:10.37 W/m2 FEW
11:58 -21.8 °C -22.8 °C 34774.2 hPa NW 3.7 km/h 9 km/h 86% 0 mm WeatherDisplay:10.37 W/m2 FEW
12:03 -21.7 °C -22.8 °C 34774.2 hPa NNW 4.2 km/h 9 km/h 86% 0 mm WeatherDisplay:10.37 W/m2 FEW
12:08 -21.6 °C -22.7 °C 34774.2 hPa NNW 8.5 km/h 11.9 km/h 86% 0 mm WeatherDisplay:10.37 W/m2 FEW
12:13 -21.6 °C -22.7 °C 34774.2 hPa NW 0.3 km/h 9 km/h 86% 0 mm WeatherDisplay:10.37 W/m2 FEW
12:18 -21.5 °C -22.7 °C 34774.2 hPa North 9.3 km/h 15 km/h 85% 0 mm WeatherDisplay:10.37 W/m2 FEW
12:23 -21.5 °C -22.6 °C 34774.2 hPa NNE 3.9 km/h 9 km/h 86% 0 mm WeatherDisplay:10.37 W/m2 FEW
12:28 -21.5 °C -22.6 °C 34760.7 hPa NNE 6.3 km/h 15 km/h 86% 0 mm WeatherDisplay:10.37 W/m2 FEW
12:33 -21.4 °C -22.5 °C 34760.7 hPa NNW 6 km/h 11.9 km/h 86% 0 mm WeatherDisplay:10.37 W/m2 FEW
12:38 -21.3 °C -22.6 °C 34760.7 hPa NNE 1 km/h 12.9 km/h 85% 0 mm WeatherDisplay:10.37 W/m2 FEW
12:43 -21.3 °C -22.6 °C 34760.7 hPa NNE 13.2 km/h 18.2 km/h 85% 0 mm WeatherDisplay:10.37 W/m2 FEW
12:48 -21.3 °C -22.6 °C 34760.7 hPa NNW 8 km/h 10.3 km/h 85% 0 mm WeatherDisplay:10.37 W/m2 FEW
12:53 -21.3 °C -22.5 °C 34760.7 hPa WNW 17.1 km/h 20.8 km/h 85% 0 mm WeatherDisplay:10.37 W/m2 FEW
12:58 -21.3 °C -22.6 °C 34750.5 hPa NNW 14 km/h 20.9 km/h 84% 0 mm WeatherDisplay:10.37 W/m2 FEW
13:03 -21.3 °C -22.6 °C 34750.5 hPa North 13.7 km/h 29.8 km/h 84% 0 mm WeatherDisplay:10.37 W/m2 FEW
13:08 -21.2 °C -22.5 °C 34750.5 hPa North 14.5 km/h 28.5 km/h 84% 0 mm WeatherDisplay:10.37 W/m2 FEW
13:13 -21.2 °C -22.5 °C 34750.5 hPa NW 13.5 km/h 20.9 km/h 84% 0 mm WeatherDisplay:10.37 W/m2 FEW
13:18 -21.2 °C -22.4 °C 34750.5 hPa NW 28.5 km/h 32.8 km/h 84% 0 mm WeatherDisplay:10.37 W/m2 FEW
13:23 -21.2 °C -22.4 °C 34740.4 hPa NW 15 km/h 25.9 km/h 84% 0 mm WeatherDisplay:10.37 W/m2 FEW
13:28 -21.2 °C -22.6 °C 34740.4 hPa NW 10.9 km/h 11.9 km/h 83% 0 mm WeatherDisplay:10.37 W/m2 FEW
13:33 -21.2 °C -22.6 °C 34740.4 hPa NW 21.7 km/h 35.7 km/h 83% 0 mm WeatherDisplay:10.37 W/m2 FEW
13:38 -21.2 °C -22.6 °C 34740.4 hPa NW 6.9 km/h 29.8 km/h 83% 0 mm WeatherDisplay:10.37 W/m2 FEW
13:43 -21.3 °C -22.6 °C 34740.4 hPa NW 19.2 km/h 29.8 km/h 83% 0 mm WeatherDisplay:10.37 W/m2 FEW
13:48 -21.2 °C -22.6 °C 34740.4 hPa North 11.1 km/h 20.9 km/h 83% 0 mm WeatherDisplay:10.37 W/m2 FEW
13:53 -21.2 °C -22.5 °C 34740.4 hPa NW 17.9 km/h 20.9 km/h 84% 0 mm WeatherDisplay:10.37 W/m2 FEW
13:58 -21.2 °C -22.5 °C 34740.4 hPa NNW 11.6 km/h 23.8 km/h 84% 0 mm WeatherDisplay:10.37 W/m2 FEW
14:03 -21.2 °C -22.6 °C 34726.8 hPa North 19.2 km/h 35.7 km/h 83% 0 mm WeatherDisplay:10.37 W/m2 FEW
14:08 -21.2 °C -22.4 °C 34726.8 hPa NNW 18.2 km/h 32.8 km/h 84% 0 mm WeatherDisplay:10.37 W/m2 FEW
14:13 -21.2 °C -22.6 °C 34726.8 hPa NW 19.6 km/h 47.6 km/h 83% 0 mm WeatherDisplay:10.37 W/m2 FEW
14:18 -21.2 °C -22.6 °C 34726.8 hPa NNW 5 km/h 15 km/h 83% 0 mm WeatherDisplay:10.37 W/m2 FEW
14:23 -21.3 °C -22.6 °C 34726.8 hPa NNW 11.1 km/h 15 km/h 84% 0 mm WeatherDisplay:10.37 W/m2 FEW
14:28 -21.3 °C -22.6 °C 34716.7 hPa NNW 9.3 km/h 23.8 km/h 84% 0 mm WeatherDisplay:10.37 W/m2 FEW
14:33 -21.3 °C -22.6 °C 34703.1 hPa NNW 10.3 km/h 23.8 km/h 84% 0 mm WeatherDisplay:10.37 W/m2 FEW
14:38 -21.3 °C -22.6 °C 34703.1 hPa NNW 2.1 km/h 9 km/h 84% 0 mm WeatherDisplay:10.37 W/m2 FEW
14:43 -21.3 °C -22.6 °C 34703.1 hPa WNW 10.6 km/h 29.8 km/h 84% 0 mm WeatherDisplay:10.37 W/m2 FEW
14:48 -21.3 °C -22.6 °C 34703.1 hPa NNW 11.1 km/h 23.8 km/h 84% 0 mm WeatherDisplay:10.37 W/m2 FEW
14:53 -21.3 °C -22.6 °C 34703.1 hPa NNW 12.7 km/h 23.8 km/h 84% 0 mm WeatherDisplay:10.37 W/m2 FEW
14:58 -21.3 °C -22.6 °C 34693 hPa North 9.3 km/h 20.9 km/h 84% 0 mm WeatherDisplay:10.37 W/m2 FEW
15:03 -21.3 °C -22.6 °C 34693 hPa NW 10.6 km/h 29.8 km/h 84% 0 mm WeatherDisplay:10.37 W/m2 FEW
15:08 -21.3 °C -22.6 °C 34693 hPa NW 9.8 km/h 20.9 km/h 84% 0 mm WeatherDisplay:10.37 W/m2 FEW
15:13 -21.4 °C -22.7 °C 34693 hPa NNW 20.9 km/h 29.8 km/h 84% 0 mm WeatherDisplay:10.37 W/m2 FEW
15:18 -21.4 °C -22.6 °C 34693 hPa NNW 13.2 km/h 31.1 km/h 85% 0 mm WeatherDisplay:10.37 W/m2 FEW
15:24 -21.4 °C -22.7 °C 34693 hPa NNW 8 km/h 20.8 km/h 84% 0 mm WeatherDisplay:10.37 W/m2 FEW
15:29 -21.4 °C -22.6 °C 34693 hPa NNW 12.9 km/h 23.8 km/h 85% 0 mm WeatherDisplay:10.37 W/m2 FEW
15:34 -21.5 °C -22.7 °C 34693 hPa WNW 4.2 km/h 11.9 km/h 85% 0 mm WeatherDisplay:10.37 W/m2 FEW
15:39 -21.5 °C -22.7 °C 34693 hPa North 16.3 km/h 29.8 km/h 85% 0 mm WeatherDisplay:10.37 W/m2 FEW
15:44 -21.6 °C -22.7 °C 34693 hPa NE 6.8 km/h 20.8 km/h 85% 0 mm WeatherDisplay:10.37 W/m2 FEW
15:49 -21.6 °C -22.6 °C 34693 hPa NNW 15 km/h 29.8 km/h 86% 0 mm WeatherDisplay:10.37 W/m2 FEW
15:54 -21.6 °C -22.7 °C 34693 hPa NW 16.1 km/h 26.9 km/h 85% 0 mm WeatherDisplay:10.37 W/m2 FEW
15:59 -21.6 °C -22.7 °C 34693 hPa NNW 3.7 km/h 9 km/h 86% 0 mm WeatherDisplay:10.37 W/m2 FEW
16:04 -21.6 °C -22.7 °C 34693 hPa NNW 8.2 km/h 35.7 km/h 86% 0 mm WeatherDisplay:10.37 W/m2 FEW
16:09 -21.7 °C -22.7 °C 34693 hPa NNW 9.3 km/h 29.8 km/h 86% 0 mm WeatherDisplay:10.37 W/m2 FEW
16:14 -21.7 °C -22.8 °C 34682.8 hPa NNW 13.2 km/h 29.8 km/h 86% 0 mm WeatherDisplay:10.37 W/m2 FEW
16:19 -21.8 °C -22.8 °C 34682.8 hPa NW 14.8 km/h 29.8 km/h 86% 0 mm WeatherDisplay:10.37 W/m2 FEW
16:24 -21.8 °C -22.8 °C 34682.8 hPa NNW 17.4 km/h 29.8 km/h 87% 0 mm WeatherDisplay:10.37 W/m2 FEW
16:29 -21.8 °C -22.8 °C 34682.8 hPa NNW 15.6 km/h 29.8 km/h 87% 0 mm WeatherDisplay:10.37 W/m2 FEW
16:34 -21.8 °C -22.8 °C 34682.8 hPa NNW 17.4 km/h 35.7 km/h 87% 0 mm WeatherDisplay:10.37 W/m2 FEW
16:39 -21.9 °C -22.9 °C 34682.8 hPa NNW 11.4 km/h 26.9 km/h 87% 0 mm WeatherDisplay:10.37 W/m2 FEW
16:44 -21.9 °C -22.9 °C 34682.8 hPa NNW 15.6 km/h 23.8 km/h 87% 0 mm WeatherDisplay:10.37 W/m2 FEW
16:49 -22 °C -23 °C 34682.8 hPa NW 17.1 km/h 29.8 km/h 87% 0 mm WeatherDisplay:10.37 W/m2 FEW
16:54 -22.1 °C -22.9 °C 34682.8 hPa NW 10.6 km/h 23.8 km/h 88% 0 mm WeatherDisplay:10.37 W/m2 FEW
16:59 -22.1 °C -23.1 °C 34682.8 hPa NNW 7.6 km/h 15 km/h 87% 0 mm WeatherDisplay:10.37 W/m2 FEW
17:04 -22.1 °C -23.1 °C 34682.8 hPa NNW 3.7 km/h 11.9 km/h 88% 0 mm WeatherDisplay:10.37 W/m2 FEW
17:09 -22.2 °C -23.1 °C 34669.3 hPa NW 7.7 km/h 23.8 km/h 88% 0 mm WeatherDisplay:10.37 W/m2 FEW
17:14 -22.2 °C -23.1 °C 34669.3 hPa NNW 9.3 km/h 15 km/h 88% 0 mm WeatherDisplay:10.37 W/m2 FEW
17:19 -22.3 °C -23.2 °C 34669.3 hPa NNW 17.9 km/h 29.8 km/h 88% 0 mm WeatherDisplay:10.37 W/m2 FEW
17:24 -22.3 °C -23.2 °C 34669.3 hPa NNW 6.4 km/h 11.9 km/h 88% 0 mm WeatherDisplay:10.37 W/m2 FEW
17:29 -22.4 °C -23.3 °C 34669.3 hPa NNW 7.7 km/h 11.9 km/h 88% 0 mm WeatherDisplay:10.37 W/m2 FEW
17:34 -22.4 °C -23.2 °C 34669.3 hPa NNW 9.8 km/h 20.9 km/h 89% 0 mm WeatherDisplay:10.37 W/m2 FEW
17:39 -22.4 °C -23.2 °C 34669.3 hPa NNW 5.1 km/h 23.3 km/h 89% 0 mm WeatherDisplay:10.37 W/m2 FEW
17:44 -22.4 °C -23.2 °C 34669.3 hPa NNW 15 km/h 26.9 km/h 89% 0 mm WeatherDisplay:10.37 W/m2 FEW
17:49 -22.4 °C -23.3 °C 34659.1 hPa NNW 15.8 km/h 29.8 km/h 89% 0 mm WeatherDisplay:10.37 W/m2 FEW
17:54 -22.4 °C -23.3 °C 34659.1 hPa NNW 12.7 km/h 23.8 km/h 89% 0 mm WeatherDisplay:10.37 W/m2 FEW
17:59 -22.5 °C -23.3 °C 34659.1 hPa NW 11.1 km/h 23.8 km/h 89% 0 mm WeatherDisplay:10.37 W/m2 FEW
18:04 -22.5 °C -23.3 °C 34659.1 hPa NNW 5 km/h 15 km/h 89% 0 mm WeatherDisplay:10.37 W/m2 FEW
18:09 -22.6 °C -23.4 °C 34659.1 hPa NNW 0.8 km/h 6 km/h 89% 0 mm WeatherDisplay:10.37 W/m2 FEW
18:14 -22.6 °C -23.4 °C 34659.1 hPa NNW 6.9 km/h 11.9 km/h 89% 0 mm WeatherDisplay:10.37 W/m2 FEW
18:19 -22.6 °C -23.4 °C 34659.1 hPa NNW 7.7 km/h 20.8 km/h 89% 0 mm WeatherDisplay:10.37 W/m2 FEW
18:24 -22.6 °C -23.4 °C 34659.1 hPa NNE 8 km/h 20.9 km/h 89% 0 mm WeatherDisplay:10.37 W/m2 FEW
18:29 -22.7 °C -23.5 °C 34645.6 hPa NNW 11.1 km/h 23.8 km/h 89% 0 mm WeatherDisplay:10.37 W/m2 FEW
18:34 -22.7 °C -23.4 °C 34645.6 hPa NNW 4.7 km/h 12.9 km/h 90% 0 mm WeatherDisplay:10.37 W/m2 FEW
18:39 -22.7 °C -23.4 °C 34645.6 hPa NW 9 km/h 15 km/h 90% 0 mm WeatherDisplay:10.37 W/m2 FEW
18:44 -22.7 °C -23.4 °C 34659.1 hPa NNW 2.1 km/h 12.9 km/h 90% 0 mm WeatherDisplay:10.37 W/m2 FEW
18:49 -22.7 °C -23.4 °C 34645.6 hPa NNW 10.1 km/h 23.8 km/h 90% 0 mm WeatherDisplay:10.37 W/m2 FEW
18:54 -22.7 °C -23.4 °C 34645.6 hPa NNW 6 km/h 15 km/h 90% 0 mm WeatherDisplay:10.37 W/m2 FEW
18:59 -22.7 °C -23.5 °C 34645.6 hPa NW 1.8 km/h 6 km/h 90% 0 mm WeatherDisplay:10.37 W/m2 FEW
19:04 -22.7 °C -23.5 °C 34645.6 hPa NW 6.4 km/h 15.6 km/h 90% 0 mm WeatherDisplay:10.37 W/m2 FEW
19:09 -22.7 °C -23.5 °C 34645.6 hPa NNW 8.5 km/h 15 km/h 90% 0 mm WeatherDisplay:10.37 W/m2 FEW
19:14 -22.8 °C -23.5 °C 34645.6 hPa NNW 7.6 km/h 11.9 km/h 90% 0 mm WeatherDisplay:10.37 W/m2 FEW
19:19 -22.8 °C -23.5 °C 34645.6 hPa NW 5.5 km/h 15 km/h 90% 0 mm WeatherDisplay:10.37 W/m2 FEW
19:24 -22.8 °C -23.6 °C 34645.6 hPa NE 8.5 km/h 20.9 km/h 90% 0 mm WeatherDisplay:10.37 W/m2 FEW
19:29 -22.8 °C -23.6 °C 34635.4 hPa NNW 1.6 km/h 9 km/h 90% 0 mm WeatherDisplay:10.37 W/m2 FEW
19:34 -22.8 °C -23.6 °C 34635.4 hPa NNW 11.6 km/h 26.9 km/h 90% 0 mm WeatherDisplay:10.37 W/m2 FEW
19:37 -22.8 °C -23.6 °C 34635.4 hPa NNW 9.7 km/h 23.8 km/h 90% 0 mm WeatherDisplay:10.37 W/m2 FEW
19:42 -22.8 °C -23.6 °C 34635.4 hPa NNW 6.9 km/h 15 km/h 90% 0 mm WeatherDisplay:10.37 W/m2 FEW
19:47 -22.8 °C -23.6 °C 34625.2 hPa NNW 16.3 km/h 26.9 km/h 90% 0 mm WeatherDisplay:10.37 W/m2 FEW
19:52 -22.9 °C -23.6 °C 34625.2 hPa NNW 4.7 km/h 9 km/h 90% 0 mm WeatherDisplay:10.37 W/m2 FEW
19:57 -22.9 °C -23.6 °C 34625.2 hPa NW 9.8 km/h 23.8 km/h 90% 0 mm WeatherDisplay:10.37 W/m2 FEW
20:02 -22.9 °C -23.6 °C 34625.2 hPa NW 1.6 km/h 10.3 km/h 90% 0 mm WeatherDisplay:10.37 W/m2 FEW
20:07 -22.9 °C -23.7 °C 34611.7 hPa NNW 6 km/h 11.9 km/h 90% 0 mm WeatherDisplay:10.37 W/m2 FEW
20:12 -22.9 °C -23.7 °C 34611.7 hPa NNW 11.9 km/h 23.8 km/h 90% 0 mm WeatherDisplay:10.37 W/m2 FEW
20:17 -22.9 °C -23.7 °C 34611.7 hPa North 5 km/h 12.9 km/h 90% 0 mm WeatherDisplay:10.37 W/m2 FEW
20:22 -22.9 °C -23.7 °C 34601.5 hPa NW 9.3 km/h 20.9 km/h 90% 0 mm WeatherDisplay:10.37 W/m2 FEW
20:27 -22.9 °C -23.7 °C 34601.5 hPa NE 5 km/h 9 km/h 90% 0 mm WeatherDisplay:10.37 W/m2 FEW
20:32 -23 °C -23.7 °C 34601.5 hPa NNW 5.1 km/h 11.9 km/h 90% 0 mm WeatherDisplay:10.37 W/m2 FEW
20:37 -23 °C -23.8 °C 34601.5 hPa NW 6.3 km/h 9 km/h 90% 0 mm WeatherDisplay:10.37 W/m2 FEW
20:42 -23.1 °C -23.8 °C 34601.5 hPa Calm     90% 0 mm WeatherDisplay:10.37 W/m2 FEW
20:47 -23.1 °C -23.8 °C 34601.5 hPa NNW 16.3 km/h 31.1 km/h 90% 0 mm WeatherDisplay:10.37 W/m2 FEW
20:52 -23.1 °C -23.8 °C 34601.5 hPa NNE 8 km/h 15 km/h 90% 0 mm WeatherDisplay:10.37 W/m2 FEW
20:57 -23.1 °C -23.8 °C 34601.5 hPa NNW 2.3 km/h 9 km/h 90% 0 mm WeatherDisplay:10.37 W/m2 FEW
21:02 -23.1 °C -23.8 °C 34601.5 hPa NW 4.7 km/h 9 km/h 90% 0 mm WeatherDisplay:10.37 W/m2 FEW
21:07 -23.1 °C -23.8 °C 34601.5 hPa NW 4.2 km/h 11.9 km/h 90% 0 mm WeatherDisplay:10.37 W/m2 FEW
21:12 -23.2 °C -23.9 °C 34591.4 hPa NNW 7.6 km/h 11.9 km/h 90% 0 mm WeatherDisplay:10.37 W/m2 FEW
21:17 -23.2 °C -23.9 °C 34591.4 hPa NNW 5.6 km/h 15 km/h 90% 0 mm WeatherDisplay:10.37 W/m2 FEW
21:21 -23.2 °C -23.9 °C 34591.4 hPa Calm     90% 0 mm WeatherDisplay:10.37 W/m2 FEW
21:26 -23.2 °C -23.9 °C 34591.4 hPa NNW 0.5 km/h 6 km/h 90% 0 mm WeatherDisplay:10.37 W/m2 FEW
21:31 -23.2 °C -24 °C 34591.4 hPa NW 1.6 km/h 9 km/h 90% 0 mm WeatherDisplay:10.37 W/m2 FEW
21:36 -23.2 °C -24 °C 34591.4 hPa NNW 1 km/h 9 km/h 90% 0 mm WeatherDisplay:10.37 W/m2 FEW
21:41 -23.2 °C -24 °C 34591.4 hPa NNW 1.6 km/h 11.9 km/h 90% 0 mm WeatherDisplay:10.37 W/m2 FEW
21:46 -23.3 °C -24 °C 34577.8 hPa NNW 2.9 km/h 9 km/h 90% 0 mm WeatherDisplay:10.37 W/m2 FEW
21:51 -23.3 °C -24.1 °C 34577.8 hPa NW 0.8 km/h 9 km/h 90% 0 mm WeatherDisplay:10.37 W/m2 FEW
21:56 -23.3 °C -24.1 °C 34577.8 hPa NNE 5.1 km/h 9 km/h 90% 0 mm WeatherDisplay:10.37 W/m2 FEW
22:01 -23.4 °C -24.1 °C 34567.7 hPa NNW 9.7 km/h 26.9 km/h 90% 0 mm WeatherDisplay:10.37 W/m2 FEW
22:06 -23.4 °C -24.1 °C 34577.8 hPa North 7.6 km/h 29.8 km/h 90% 0 mm WeatherDisplay:10.37 W/m2 FEW
22:11 -23.4 °C -24.1 °C 34567.7 hPa NNE 5.5 km/h 9 km/h 90% 0 mm WeatherDisplay:10.37 W/m2 FEW
22:16 -23.4 °C -24.1 °C 34567.7 hPa NNW 4.2 km/h 10.3 km/h 90% 0 mm WeatherDisplay:10.37 W/m2 FEW
22:21 -23.4 °C -24.1 °C 34567.7 hPa NNW 6 km/h 20.8 km/h 90% 0 mm WeatherDisplay:10.37 W/m2 FEW
22:27 -23.4 °C -24.1 °C 34567.7 hPa NNW 5 km/h 12.9 km/h 90% 0 mm WeatherDisplay:10.37 W/m2 FEW
22:32 -23.4 °C -24.2 °C 34567.7 hPa NNW 5.1 km/h 9 km/h 90% 0 mm WeatherDisplay:10.37 W/m2 FEW
22:37 -23.4 °C -24.2 °C 34567.7 hPa NNW 6.4 km/h 23.8 km/h 90% 0 mm WeatherDisplay:10.37 W/m2 FEW
22:42 -23.4 °C -23.5 °C 34567.7 hPa NNW 5.6 km/h 9 km/h 99% 0 mm WeatherDisplay:10.37 W/m2 FEW
22:47 -23.4 °C -23.5 °C 34567.7 hPa NW 7.6 km/h 15 km/h 99% 0 mm WeatherDisplay:10.37 W/m2 FEW
22:52 -23.4 °C -24.2 °C 34554.1 hPa North 1.6 km/h 9 km/h 90% 0 mm WeatherDisplay:10.37 W/m2 FEW
22:57 -23.4 °C -23.5 °C 34544 hPa NNW 8.5 km/h 15 km/h 99% 0 mm WeatherDisplay:10.37 W/m2 FEW
23:03 -23.4 °C -23.5 °C 34533.8 hPa NNW 6.8 km/h 9 km/h 99% 0 mm WeatherDisplay:10.37 W/m2 FEW
23:08 -23.4 °C -24.2 °C 34533.8 hPa NNW 6 km/h 11.9 km/h 90% 0 mm WeatherDisplay:10.37 W/m2 FEW
23:13 -23.4 °C -24.2 °C 34533.8 hPa NNW 11.4 km/h 23.8 km/h 90% 0 mm WeatherDisplay:10.37 W/m2 FEW
23:18 -23.4 °C -24.2 °C 34533.8 hPa NNE 6.4 km/h 20.9 km/h 90% 0 mm WeatherDisplay:10.37 W/m2 FEW
23:23 -23.4 °C -24.2 °C 34533.8 hPa North 5.1 km/h 10.3 km/h 90% 0 mm WeatherDisplay:10.37 W/m2 FEW
23:29 -23.5 °C -24.2 °C 34520.3 hPa North 7.6 km/h 20.9 km/h 90% 0 mm WeatherDisplay:10.37 W/m2 FEW
23:34 -23.5 °C -24.2 °C 34520.3 hPa NNW 2.3 km/h 12.9 km/h 90% 0 mm WeatherDisplay:10.37 W/m2 FEW
23:39 -23.5 °C -24.3 °C 34520.3 hPa NNW 2.6 km/h 9 km/h 90% 0 mm WeatherDisplay:10.37 W/m2 FEW
23:44 -23.6 °C -24.3 °C 34520.3 hPa NNW 6.9 km/h 15 km/h 90% 0 mm WeatherDisplay:10.37 W/m2 FEW
23:49 -23.6 °C -24.3 °C 34520.3 hPa NNW 4.3 km/h 15 km/h 90% 0 mm WeatherDisplay:10.37 W/m2 FEW
23:54 -23.6 °C -24.3 °C 34533.8 hPa North 2.1 km/h 9 km/h 90% 0 mm WeatherDisplay:10.37 W/m2 FEW
23:59 -23.6 °C -24.3 °C 34520.3 hPa NW 5.1 km/h 11.9 km/h 90% 0 mm WeatherDisplay:10.37 W/m2 FEW
Tuulensuunkaari, Veikkola, Suomi
Compliments of Weather Underground - 2.75 mb